When you browse on this site, cookies collect data to enhance your experience and personalize the content and advertising you see.
Visit our Privacy Policy to learn more. By continuing to use the site, you agree to this use of cookies and data.

Hourly Weather Oy

Today, 7 July, Tuesday

Time Temperature Precipitation Wind Pressure Humidity
00:00 +13°C° 0 mm 0 mps 746 mmHg 66%
01:00 +13°C° 0 mm 0 mps 746 mmHg 66%
02:00 +12°C° 0 mm 0 mps 746 mmHg 66%
03:00 +12°C° 0 mm 0 mps 746 mmHg 65%
04:00 +13°C° 0 mm 0 mps 746 mmHg 66%
05:00 +13°C° 0 mm 0 mps 746 mmHg 66%
06:00 +14°C° 0 mm 0 mps 746 mmHg 66%
07:00 +16°C° 0 mm 1 mps 746 mmHg 63%
08:00 +18°C° 0 mm 1 mps 746 mmHg 59%
09:00 +20°C° 0 mm 1 mps 747 mmHg 54%
10:00 +21°C° 0.1 mm 1 mps 746 mmHg 51%
11:00 +21°C° 0.1 mm 2 mps 746 mmHg 48%
12:00 +23°C° 0.1 mm 2 mps 746 mmHg 45%
13:00 +23°C° 0 mm 2 mps 746 mmHg 44%
14:00 +24°C° 0 mm 2 mps 745 mmHg 42%
15:00 +24°C° 0 mm 2 mps 745 mmHg 40%
16:00 +24°C° 0 mm 2 mps 745 mmHg 43%
17:00 +23°C° 0 mm 1 mps 745 mmHg 45%
18:00 +23°C° 0 mm 1 mps 745 mmHg 48%
19:00 +21°C° 0 mm 1 mps 745 mmHg 56%
20:00 +19°C° 0 mm 1 mps 745 mmHg 64%
21:00 +18°C° 0 mm 1 mps 745 mmHg 72%
22:00 +15°C° 0.1 mm 1 mps 745 mmHg 77%
23:00 +14°C° 0.1 mm 1 mps 745 mmHg 82%

Tomorrow, 8 July, Wednesday

Time Temperature Precipitation Wind Pressure Humidity
00:00 +11°C° 0.1 mm 0 mps 745 mmHg 87%
01:00 +11°C° 0 mm 0 mps 745 mmHg 89%
02:00 +10°C° 0 mm 0 mps 745 mmHg 90%
03:00 +10°C° 0 mm 0 mps 745 mmHg 92%
04:00 +11°C° 0 mm 0 mps 745 mmHg 88%
05:00 +14°C° 0 mm 1 mps 745 mmHg 84%
06:00 +15°C° 0 mm 1 mps 745 mmHg 79%
07:00 +19°C° 0 mm 1 mps 745 mmHg 71%
08:00 +21°C° 0 mm 1 mps 745 mmHg 62%
09:00 +21°C° 0 mm 0 mps 745 mmHg 53%
10:00 +24°C° 0.1 mm 1 mps 744 mmHg 49%
11:00 +26°C° 0.1 mm 1 mps 744 mmHg 44%
12:00 +27°C° 0.1 mm 1 mps 744 mmHg 39%
13:00 +26°C° 0 mm 1 mps 744 mmHg 40%
14:00 +26°C° 0 mm 1 mps 744 mmHg 42%
15:00 +25°C° 0 mm 1 mps 743 mmHg 43%
16:00 +24°C° 0 mm 1 mps 743 mmHg 46%
17:00 +24°C° 0 mm 1 mps 743 mmHg 48%
18:00 +23°C° 0 mm 1 mps 743 mmHg 51%
19:00 +22°C° 0 mm 1 mps 743 mmHg 57%
20:00 +20°C° 0 mm 1 mps 743 mmHg 64%
21:00 +19°C° 0 mm 1 mps 743 mmHg 70%
22:00 +16°C° 0 mm 1 mps 744 mmHg 75%
23:00 +15°C° 0 mm 1 mps 744 mmHg 79%

Day after tomorrow, 9 July, Thursday

Time Temperature Precipitation Wind Pressure Humidity
00:00 +14°C° 0 mm 1 mps 744 mmHg 84%
01:00 +14°C° 0 mm 1 mps 744 mmHg 84%
02:00 +14°C° 0 mm 1 mps 744 mmHg 84%
03:00 +13°C° 0 mm 1 mps 744 mmHg 84%
04:00 +14°C° 0 mm 1 mps 744 mmHg 81%
05:00 +15°C° 0 mm 1 mps 744 mmHg 77%
06:00 +16°C° 0 mm 1 mps 744 mmHg 74%
07:00 +18°C° 0 mm 2 mps 744 mmHg 66%
08:00 +20°C° 0 mm 2 mps 744 mmHg 59%
09:00 +24°C° 0 mm 2 mps 744 mmHg 51%
10:00 +24°C° 0 mm 2 mps 744 mmHg 46%
11:00 +25°C° 0 mm 2 mps 744 mmHg 42%
12:00 +26°C° 0 mm 2 mps 744 mmHg 37%
13:00 +27°C° 0 mm 3 mps 743 mmHg 38%
14:00 +27°C° 0 mm 3 mps 743 mmHg 38%
15:00 +27°C° 0 mm 3 mps 743 mmHg 38%
16:00 +27°C° 0 mm 3 mps 743 mmHg 39%
17:00 +27°C° 0 mm 3 mps 743 mmHg 41%
18:00 +26°C° 0 mm 3 mps 743 mmHg 42%
19:00 +25°C° 0 mm 3 mps 743 mmHg 50%
20:00 +22°C° 0 mm 3 mps 743 mmHg 58%
21:00 +20°C° 0 mm 2 mps 743 mmHg 66%
22:00 +19°C° 0 mm 2 mps 743 mmHg 72%
23:00 +18°C° 0 mm 2 mps 743 mmHg 77%

10 July, Friday

Time Temperature Precipitation Wind Pressure Humidity
00:00 +16°C° 0 mm 2 mps 743 mmHg 82%
01:00 +16°C° 0 mm 3 mps 743 mmHg 81%
02:00 +16°C° 0 mm 3 mps 743 mmHg 80%
03:00 +16°C° 0 mm 3 mps 743 mmHg 79%
04:00 +16°C° 0.1 mm 2 mps 743 mmHg 78%
05:00 +17°C° 0.1 mm 2 mps 743 mmHg 78%
06:00 +17°C° 0.1 mm 2 mps 743 mmHg 77%
07:00 +17°C° 0.2 mm 2 mps 743 mmHg 79%
08:00 +18°C° 0.2 mm 3 mps 743 mmHg 82%
09:00 +18°C° 0.2 mm 3 mps 743 mmHg 84%
10:00 +18°C° 0.3 mm 3 mps 743 mmHg 87%
11:00 +17°C° 0.3 mm 4 mps 743 mmHg 90%
12:00 +17°C° 0.3 mm 4 mps 743 mmHg 92%
13:00 +17°C° 0 mm 4 mps 743 mmHg 91%
14:00 +17°C° 0 mm 4 mps 743 mmHg 90%
15:00 +18°C° 0 mm 4 mps 743 mmHg 89%
16:00 +18°C° 0 mm 4 mps 743 mmHg 87%
17:00 +18°C° 0 mm 4 mps 744 mmHg 86%
18:00 +18°C° 0 mm 4 mps 744 mmHg 84%
19:00 +17°C° 0 mm 4 mps 744 mmHg 85%
20:00 +17°C° 0 mm 3 mps 744 mmHg 86%
21:00 +17°C° 0 mm 3 mps 745 mmHg 87%
22:00 +16°C° 0 mm 3 mps 745 mmHg 88%
23:00 +16°C° 0 mm 3 mps 745 mmHg 88%

11 July, Saturday

Time Temperature Precipitation Wind Pressure Humidity
00:00 +16°C° 0 mm 3 mps 745 mmHg 88%
01:00 +16°C° 0 mm 2 mps 746 mmHg 89%
02:00 +16°C° 0 mm 2 mps 746 mmHg 90%
03:00 +15°C° 0 mm 2 mps 747 mmHg 91%
04:00 +16°C° 0 mm 2 mps 747 mmHg 90%
05:00 +16°C° 0 mm 2 mps 747 mmHg 88%
06:00 +16°C° 0 mm 2 mps 747 mmHg 87%
07:00 +17°C° 0 mm 2 mps 748 mmHg 85%
08:00 +18°C° 0 mm 2 mps 748 mmHg 82%
09:00 +18°C° 0 mm 2 mps 748 mmHg 79%
10:00 +19°C° 0 mm 2 mps 748 mmHg 75%
11:00 +21°C° 0 mm 2 mps 748 mmHg 71%
12:00 +23°C° 0 mm 2 mps 748 mmHg 66%
13:00 +24°C° 0 mm 2 mps 748 mmHg 63%
14:00 +26°C° 0 mm 2 mps 748 mmHg 59%
15:00 +27°C° 0 mm 2 mps 748 mmHg 55%
16:00 +27°C° 0 mm 2 mps 748 mmHg 57%
17:00 +27°C° 0 mm 3 mps 748 mmHg 58%
18:00 +27°C° 0 mm 3 mps 748 mmHg 59%
19:00 +25°C° 0 mm 2 mps 748 mmHg 66%
20:00 +24°C° 0 mm 2 mps 749 mmHg 72%
21:00 +23°C° 0 mm 2 mps 749 mmHg 79%
22:00 +20°C° 0 mm 2 mps 749 mmHg 84%
23:00 +19°C° 0 mm 2 mps 749 mmHg 90%

12 July, Sunday

Time Temperature Precipitation Wind Pressure Humidity
00:00 +18°C° 0 mm 2 mps 749 mmHg 95%
01:00 +17°C° 0 mm 2 mps 749 mmHg 96%
02:00 +17°C° 0 mm 2 mps 749 mmHg 97%
03:00 +16°C° 0 mm 2 mps 749 mmHg 97%
04:00 +17°C° 0 mm 2 mps 749 mmHg 94%
05:00 +18°C° 0 mm 2 mps 749 mmHg 90%
06:00 +19°C° 0 mm 2 mps 749 mmHg 86%
07:00 +21°C° 0 mm 3 mps 749 mmHg 79%
08:00 +24°C° 0 mm 3 mps 749 mmHg 71%
09:00 +26°C° 0 mm 3 mps 749 mmHg 64%
10:00 +27°C° 0 mm 3 mps 749 mmHg 60%
11:00 +29°C° 0 mm 3 mps 749 mmHg 55%
12:00 +30°C° 0 mm 3 mps 748 mmHg 51%
13:00 +31°C° 0 mm 3 mps 748 mmHg 49%
14:00 +33°C° 0 mm 3 mps 748 mmHg 48%
15:00 +34°C° 0 mm 3 mps 747 mmHg 46%
16:00 +34°C° 0 mm 3 mps 747 mmHg 47%
17:00 +34°C° 0 mm 3 mps 747 mmHg 48%
18:00 +34°C° 0 mm 3 mps 747 mmHg 49%
19:00 +31°C° 0 mm 3 mps 747 mmHg 56%
20:00 +30°C° 0 mm 3 mps 748 mmHg 64%
21:00 +28°C° 0 mm 3 mps 748 mmHg 71%
22:00 +27°C° 0 mm 2 mps 748 mmHg 74%
23:00 +26°C° 0 mm 2 mps 748 mmHg 77%
Show more